Time,TemperatureF,DewpointF,PressureIn,WindDirection,WindDirectionDegrees,WindSpeedMPH,WindSpeedGustMPH,Humidity,HourlyPrecipIn,Conditions,Clouds,dailyrainin,SolarRadiationWatts/m^2,SoftwareType,DateUTC
2013-01-09 00:22:00,25.0,19.0,-100.00,SE,129,3.0,7.0,78,0.00,,,0.00,0.000000,,2013-01-09 09:22:00,
2013-01-09 00:32:00,25.0,19.0,-100.00,SE,129,3.0,7.0,78,0.00,,,0.00,0.000000,,2013-01-09 09:32:00,
2013-01-09 00:42:00,25.0,19.0,-100.00,SE,129,3.0,7.0,78,0.00,,,0.00,0.000000,,2013-01-09 09:42:00,
2013-01-09 00:53:00,25.0,19.0,-100.00,SE,129,3.0,7.0,78,0.00,,,0.00,0.000000,,2013-01-09 09:53:00,
2013-01-09 01:22:00,23.0,18.0,-100.00,SSE,168,4.0,5.0,81,0.00,,,0.00,0.000000,,2013-01-09 10:22:00,
2013-01-09 01:32:00,23.0,18.0,-100.00,SSE,168,4.0,5.0,81,0.00,,,0.00,0.000000,,2013-01-09 10:32:00,
2013-01-09 01:42:00,23.0,18.0,-100.00,SSE,168,4.0,5.0,81,0.00,,,0.00,0.000000,,2013-01-09 10:42:00,
2013-01-09 01:52:00,23.0,18.0,-100.00,SSE,168,4.0,5.0,81,0.00,,,0.00,0.000000,,2013-01-09 10:52:00,
2013-01-09 02:22:00,24.0,17.0,-100.00,SE,144,6.0,8.0,75,0.00,,,0.00,0.000000,,2013-01-09 11:22:00,
2013-01-09 02:32:00,24.0,17.0,-100.00,SE,144,6.0,8.0,75,0.00,,,0.00,0.000000,,2013-01-09 11:32:00,
2013-01-09 02:42:00,24.0,17.0,-100.00,SE,144,6.0,8.0,75,0.00,,,0.00,0.000000,,2013-01-09 11:42:00,
2013-01-09 02:52:00,24.0,17.0,-100.00,SE,144,6.0,8.0,75,0.00,,,0.00,0.000000,,2013-01-09 11:52:00,
2013-01-09 03:23:00,23.0,17.0,-100.00,South,172,3.0,7.0,79,0.00,,,0.00,0.000000,,2013-01-09 12:23:00,
2013-01-09 03:33:00,23.0,17.0,-100.00,South,172,3.0,7.0,79,0.00,,,0.00,0.000000,,2013-01-09 12:33:00,
2013-01-09 03:42:00,23.0,17.0,-100.00,South,172,3.0,7.0,79,0.00,,,0.00,0.000000,,2013-01-09 12:42:00,
2013-01-09 03:52:00,23.0,17.0,-100.00,South,172,3.0,7.0,79,0.00,,,0.00,0.000000,,2013-01-09 12:52:00,
2013-01-09 04:22:00,23.0,19.0,-100.00,East,94,1.0,4.0,85,0.00,,,0.00,0.000000,,2013-01-09 13:22:00,
2013-01-09 04:32:00,23.0,19.0,-100.00,East,94,1.0,4.0,85,0.00,,,0.00,0.000000,,2013-01-09 13:32:00,
2013-01-09 04:42:00,23.0,19.0,-100.00,East,94,1.0,4.0,85,0.00,,,0.00,0.000000,,2013-01-09 13:42:00,
2013-01-09 04:52:00,23.0,19.0,-100.00,East,94,1.0,4.0,85,0.00,,,0.00,0.000000,,2013-01-09 13:52:00,
2013-01-09 05:22:00,22.0,17.0,-100.00,South,175,2.0,4.0,81,0.00,,,0.00,0.000000,,2013-01-09 14:22:00,
2013-01-09 05:33:00,22.0,17.0,-100.00,South,175,2.0,4.0,81,0.00,,,0.00,0.000000,,2013-01-09 14:33:00,
2013-01-09 05:43:00,22.0,17.0,-100.00,South,175,2.0,4.0,81,0.00,,,0.00,0.000000,,2013-01-09 14:43:00,
2013-01-09 05:52:00,22.0,17.0,-100.00,South,175,2.0,4.0,81,0.00,,,0.00,0.000000,,2013-01-09 14:52:00,
2013-01-09 06:22:00,23.0,19.0,-100.00,ENE,60,2.0,5.0,85,0.00,,,-99.99,0.000000,,2013-01-09 15:22:00,
2013-01-09 06:33:00,23.0,19.0,-100.00,ENE,60,2.0,5.0,85,0.00,,,-99.99,0.000000,,2013-01-09 15:33:00,
2013-01-09 06:42:00,23.0,19.0,-100.00,ENE,60,2.0,5.0,85,0.00,,,-99.99,0.000000,,2013-01-09 15:42:00,
2013-01-09 06:52:00,23.0,19.0,-100.00,ENE,60,2.0,5.0,85,0.00,,,-99.99,0.000000,,2013-01-09 15:52:00,
2013-01-09 07:22:00,22.0,18.0,-100.00,NE,45,3.0,4.0,84,0.00,,,0.00,0.000000,,2013-01-09 16:22:00,
2013-01-09 07:33:00,22.0,18.0,-100.00,NE,45,3.0,4.0,84,0.00,,,0.00,0.000000,,2013-01-09 16:33:00,
2013-01-09 07:42:00,22.0,18.0,-100.00,NE,45,3.0,4.0,84,0.00,,,0.00,0.000000,,2013-01-09 16:42:00,
2013-01-09 07:52:00,22.0,18.0,-100.00,NE,45,3.0,4.0,84,0.00,,,0.00,0.000000,,2013-01-09 16:52:00,
2013-01-09 08:22:00,22.0,18.0,-100.00,North,5,0.0,4.0,84,0.00,,,0.00,0.000000,,2013-01-09 17:22:00,
2013-01-09 08:32:00,22.0,18.0,-100.00,North,5,0.0,4.0,84,0.00,,,0.00,0.000000,,2013-01-09 17:32:00,
2013-01-09 08:43:00,22.0,18.0,-100.00,North,5,0.0,4.0,84,0.00,,,0.00,0.000000,,2013-01-09 17:43:00,
2013-01-09 08:52:00,22.0,18.0,-100.00,North,5,0.0,4.0,84,0.00,,,0.00,0.000000,,2013-01-09 17:52:00,
2013-01-09 09:23:00,21.0,18.0,-100.00,ENE,62,2.0,6.0,89,0.00,,,0.00,0.000000,,2013-01-09 18:23:00,
2013-01-09 09:33:00,21.0,18.0,-100.00,ENE,62,2.0,6.0,89,0.00,,,0.00,0.000000,,2013-01-09 18:33:00,
2013-01-09 09:43:00,21.0,18.0,-100.00,ENE,62,2.0,6.0,89,0.00,,,0.00,0.000000,,2013-01-09 18:43:00,
2013-01-09 09:52:00,21.0,18.0,-100.00,ENE,62,2.0,6.0,89,0.00,,,0.00,0.000000,,2013-01-09 18:52:00,
2013-01-09 10:22:00,22.0,17.0,-100.00,South,179,2.0,4.0,80,0.00,,,0.00,1.000000,,2013-01-09 19:22:00,
2013-01-09 10:33:00,22.0,17.0,-100.00,South,179,2.0,4.0,80,0.00,,,0.00,1.000000,,2013-01-09 19:33:00,
2013-01-09 10:43:00,22.0,17.0,-100.00,South,179,2.0,4.0,80,0.00,,,0.00,1.000000,,2013-01-09 19:43:00,
2013-01-09 10:52:00,22.0,17.0,-100.00,South,179,2.0,4.0,80,0.00,,,0.00,1.000000,,2013-01-09 19:52:00,
2013-01-09 11:22:00,22.0,17.0,-100.00,South,188,1.0,4.0,81,0.00,,,0.00,8.000000,,2013-01-09 20:22:00,
2013-01-09 11:33:00,22.0,17.0,-100.00,South,188,1.0,4.0,81,0.00,,,0.00,8.000000,,2013-01-09 20:33:00,
2013-01-09 11:42:00,22.0,17.0,-100.00,South,188,1.0,4.0,81,0.00,,,0.00,8.000000,,2013-01-09 20:42:00,
2013-01-09 11:52:00,22.0,17.0,-100.00,South,188,1.0,4.0,81,0.00,,,0.00,8.000000,,2013-01-09 20:52:00,
2013-01-09 12:22:00,22.0,16.0,-100.00,SSE,147,2.0,5.0,79,0.00,,,0.00,23.000000,,2013-01-09 21:22:00,
2013-01-09 12:33:00,22.0,16.0,-100.00,SSE,147,2.0,5.0,79,0.00,,,0.00,23.000000,,2013-01-09 21:33:00,
2013-01-09 12:42:00,22.0,16.0,-100.00,SSE,147,2.0,5.0,79,0.00,,,0.00,23.000000,,2013-01-09 21:42:00,
2013-01-09 12:52:00,22.0,16.0,-100.00,SSE,147,2.0,5.0,79,0.00,,,0.00,23.000000,,2013-01-09 21:52:00,
2013-01-09 13:22:00,23.0,16.0,-100.00,South,179,3.0,6.0,75,0.00,,,0.00,59.000000,,2013-01-09 22:22:00,
2013-01-09 13:33:00,23.0,16.0,-100.00,South,179,3.0,6.0,75,0.00,,,0.00,59.000000,,2013-01-09 22:33:00,
2013-01-09 13:42:00,23.0,16.0,-100.00,South,179,3.0,6.0,75,0.00,,,0.00,59.000000,,2013-01-09 22:42:00,
2013-01-09 13:52:00,23.0,16.0,-100.00,South,179,3.0,6.0,75,0.00,,,0.00,59.000000,,2013-01-09 22:52:00,
2013-01-09 14:22:00,22.0,16.0,-100.00,South,185,3.0,5.0,77,0.00,,,0.00,35.000000,,2013-01-09 23:22:00,
2013-01-09 14:32:00,22.0,16.0,-100.00,South,185,3.0,5.0,77,0.00,,,0.00,35.000000,,2013-01-09 23:32:00,
2013-01-09 14:42:00,22.0,16.0,-100.00,South,185,3.0,5.0,77,0.00,,,0.00,35.000000,,2013-01-09 23:42:00,
2013-01-09 14:52:00,22.0,16.0,-100.00,South,185,3.0,5.0,77,0.00,,,0.00,35.000000,,2013-01-09 23:52:00,
2013-01-09 15:22:00,22.0,16.0,-100.00,West,260,0.0,5.0,76,0.00,,,0.00,28.000000,,2013-01-10 00:22:00,
2013-01-09 15:32:00,22.0,16.0,-100.00,West,260,0.0,5.0,76,0.00,,,0.00,28.000000,,2013-01-10 00:32:00,
2013-01-09 15:42:00,22.0,16.0,-100.00,West,260,0.0,5.0,76,0.00,,,0.00,28.000000,,2013-01-10 00:42:00,
2013-01-09 15:52:00,22.0,16.0,-100.00,West,260,0.0,5.0,76,0.00,,,0.00,28.000000,,2013-01-10 00:52:00,
2013-01-09 16:22:00,23.0,14.0,-100.00,NNE,33,2.0,4.0,69,0.00,,,0.00,11.000000,,2013-01-10 01:22:00,
2013-01-09 16:32:00,23.0,14.0,-100.00,NNE,33,2.0,4.0,69,0.00,,,0.00,11.000000,,2013-01-10 01:32:00,
2013-01-09 16:42:00,23.0,14.0,-100.00,NNE,33,2.0,4.0,69,0.00,,,0.00,11.000000,,2013-01-10 01:42:00,
2013-01-09 16:52:00,23.0,14.0,-100.00,NNE,33,2.0,4.0,69,0.00,,,0.00,11.000000,,2013-01-10 01:52:00,
2013-01-09 17:22:00,22.0,16.0,-100.00,South,170,2.0,4.0,77,0.00,,,0.00,1.000000,,2013-01-10 02:22:00,
2013-01-09 17:32:00,22.0,16.0,-100.00,South,170,2.0,4.0,77,0.00,,,0.00,1.000000,,2013-01-10 02:32:00,
2013-01-09 17:42:00,22.0,16.0,-100.00,South,170,2.0,4.0,77,0.00,,,0.00,1.000000,,2013-01-10 02:42:00,
2013-01-09 17:52:00,22.0,16.0,-100.00,South,170,2.0,4.0,77,0.00,,,0.00,1.000000,,2013-01-10 02:52:00,
2013-01-09 18:22:00,22.0,15.0,-100.00,SSE,158,2.0,4.0,74,0.00,,,0.00,0.000000,,2013-01-10 03:22:00,
2013-01-09 18:32:00,22.0,15.0,-100.00,SSE,158,2.0,4.0,74,0.00,,,0.00,0.000000,,2013-01-10 03:32:00,
2013-01-09 18:42:00,22.0,15.0,-100.00,SSE,158,2.0,4.0,74,0.00,,,0.00,0.000000,,2013-01-10 03:42:00,
2013-01-09 18:52:00,22.0,15.0,-100.00,SSE,158,2.0,4.0,74,0.00,,,0.00,0.000000,,2013-01-10 03:52:00,
2013-01-09 19:22:00,23.0,15.0,-100.00,SSW,201,2.0,5.0,72,0.00,,,0.00,0.000000,,2013-01-10 04:22:00,
2013-01-09 19:32:00,23.0,15.0,-100.00,SSW,201,2.0,5.0,72,0.00,,,0.00,0.000000,,2013-01-10 04:32:00,
2013-01-09 19:42:00,23.0,15.0,-100.00,SSW,201,2.0,5.0,72,0.00,,,0.00,0.000000,,2013-01-10 04:42:00,
2013-01-09 19:52:00,23.0,15.0,-100.00,SSW,201,2.0,5.0,72,0.00,,,0.00,0.000000,,2013-01-10 04:52:00,
2013-01-09 20:22:00,22.0,13.0,-100.00,South,183,3.0,6.0,69,0.00,,,0.00,0.000000,,2013-01-10 05:22:00,
2013-01-09 20:33:00,22.0,13.0,-100.00,South,183,3.0,6.0,69,0.00,,,0.00,0.000000,,2013-01-10 05:33:00,
2013-01-09 20:42:00,22.0,13.0,-100.00,South,183,3.0,6.0,69,0.00,,,0.00,0.000000,,2013-01-10 05:42:00,
2013-01-09 20:52:00,22.0,13.0,-100.00,South,183,3.0,6.0,69,0.00,,,0.00,0.000000,,2013-01-10 05:52:00,
2013-01-09 21:22:00,22.0,15.0,-100.00,North,1,4.0,8.0,73,0.00,,,0.00,0.000000,,2013-01-10 06:22:00,
2013-01-09 21:32:00,22.0,15.0,-100.00,North,1,4.0,8.0,73,0.00,,,0.00,0.000000,,2013-01-10 06:32:00,
2013-01-09 21:42:00,22.0,15.0,-100.00,North,1,4.0,8.0,73,0.00,,,0.00,0.000000,,2013-01-10 06:42:00,
2013-01-09 21:52:00,22.0,15.0,-100.00,North,1,4.0,8.0,73,0.00,,,0.00,0.000000,,2013-01-10 06:52:00,
2013-01-09 22:22:00,28.0,15.0,-100.00,SSE,157,5.0,14.0,58,0.00,,,0.00,0.000000,,2013-01-10 07:22:00,
2013-01-09 22:32:00,28.0,15.0,-100.00,SSE,157,5.0,14.0,58,0.00,,,0.00,0.000000,,2013-01-10 07:32:00,
2013-01-09 22:42:00,28.0,15.0,-100.00,SSE,157,5.0,14.0,58,0.00,,,0.00,0.000000,,2013-01-10 07:42:00,
2013-01-09 22:52:00,28.0,15.0,-100.00,SSE,157,5.0,14.0,58,0.00,,,0.00,0.000000,,2013-01-10 07:52:00,
2013-01-09 23:22:00,25.0,13.0,-100.00,NNW,346,4.0,8.0,60,0.00,,,-99.99,0.000000,,2013-01-10 08:22:00,
2013-01-09 23:32:00,25.0,13.0,-100.00,NNW,346,4.0,8.0,60,0.00,,,-99.99,0.000000,,2013-01-10 08:32:00,
2013-01-09 23:42:00,25.0,13.0,-100.00,NNW,346,4.0,8.0,60,0.00,,,-99.99,0.000000,,2013-01-10 08:42:00,
2013-01-09 23:52:00,25.0,13.0,-100.00,NNW,346,4.0,8.0,60,0.00,,,-99.99,0.000000,,2013-01-10 08:52:00,